Location: *
(50.3440°N, 18.6237°E)
Time: 16:34:35
(UTC+00:00)

Okean-O - Pass Details

Date: 30 November 2020
Orbit: 639 x 640 km, 98.2° (Epoch: 17 January)

Event Time Altitude Azimuth Distance (km) Brightness Sun altitude
Rises 17:34:31 0° 177° (S) 2,933 6.0 -26.1°
Reaches altitude 10° 17:36:45 10° 182° (S) 2,029 5.2 -26.4°
Maximum altitude 17:41:04 52° 259° (W) 799 3.3 -27.1°
Drops below altitude 10° 17:45:26 10° 337° (NNW) 2,045 5.4 -27.8°
Sets 17:47:42 0° 342° (NNW) 2,960 6.3 -28.2°
